Terminal Aerodrome Forecast
Issued by NWS

Home | Current Version | Previous Version | Text Only | Print | Product List | Glossary Off
Versions: 1 2 3 4 5 6 7 8 9 10 11 12 13

000
FTUS43 KOAX 210500
TAFCDR
TAF
KCDR 210523Z 2106/2206 24006KT P6SM SKC
     FM211700 08007KT P6SM FEW200=

USA.gov is the U.S. government's official web portal to all federal, state and local government web resources and services.